STARLINK-31747, 59564

Orbit data source: Space-Track

STARLINK-31747, 59564 is a payload satellite owned by SpaceX/Seattle (US) in LEO that was launched on Tue, 23 Apr 2024 UTC via an FALCON 9 launch vehicle from the Air Force Eastern Test Range (AFETR). Payload-class satellites include a variety of spacecraft equipped with specific instruments for various scientific and technological missions. These include communications satellites like Starlink; space stations such as the ISS; scientific satellites like the Hubble; Earth observation satellites from companies like Planet Labs, Umbra, and HawkEye 360; GPS; miniature CubeSats for education and research; and military/defense satellites.

Loading next visibility...
Identifier
59564, 2024-076A
Orbit
LEO
Country
Flag of USUS
Related business
Manufacturer
SpaceX/Seattle
Mission
Operational Commercial Communications
Bus & Motor
STARLINK V2M, Unknown motor
Mass
730 kg wet, ~700 kg dry
Launch date (UTC)
2024-04-23 (2 years ago)
Launch vehicle
FALCON 9
Launch site
Air Force Eastern Test Range (AFETR)
Object type
Payload
Rocket body
Debris
Shape & HBR
Box + 2 Pan, 17.7 m
Radar Cross Section
33.884 m², Large (>1 m²)

Expand to show TLE details & history
Last TLE update: 15 hours ago

TLE from 15 hours ago
0 STARLINK-31747
1 59564U 24076A   26035.46411850  .00000419  00000-0  24766-4 0  9996
2 59564  43.0007 186.0570 0001337 266.9895  93.0804 15.27574225101535
Epoch: 2026-02-04T11:08Z
TLE epoch observation values (Epoch: 2026-02-04T11:08:19.838Z)
Latitude
0.00001°
Longitude
-115.65597°
Altitude
482.891 km
Speed
7.626 km/s
True Right ascension
12h 24m 13s
True Declination
0° 00' 00"
Sunlit
Object was in full shadow at epoch
Visualization orbit readout
Latitude
Unknown
Longitude
Unknown
Altitude
Unknown
Speed
Unknown
Apparent Right ascension
Unknown
Apparent Declination
Unknown
Sunlit
N/A
Visualization observer readout
Local Sidereal Time
03:53:09
Azimuth
Unknown
Elevation
Unknown
Doppler factor
Unknown
Orbital elements
Apogee altitude
485.929 km
Perigee altitude
484.094 km
Semi-major axis
6,863.148 km
Eccentricity
0.00013
Inclination
43.0007°
RAAN
186.057°
Arg. of periapsis
266.9895°
True anomaly
93.0957°
Mean anomaly
93.0804°
Eccentric anomaly
93.08805°
Mean motion
3.81732 °/min
Orbital period
94.31 mins
BSTAR
0.000024766
Loading maneuver chart data...
Computing Atmospheric mass density...
Loading historical data...
Loading historical data...
Loading historical data...
Loading historical data...
Loading historical data...
Loading historical data...
Loading historical data...

Documentation

Showing up to 5 results
|